TimeCST,TemperatureF,Dew PointF,Humidity,Sea Level PressureIn,VisibilityMPH,Wind Direction,Wind SpeedMPH,Gust SpeedMPH,PrecipitationIn,Events,Conditions,WindDirDegrees,DateUTC
12:12 AM,6.8,3.2,85,30.11,5.0,WNW,15.0,20.7,N/A,,Scattered Clouds,300,2012-12-21 06:12:00
12:32 AM,6.8,3.2,85,30.11,4.0,WNW,13.8,19.6,N/A,,Mostly Cloudy,300,2012-12-21 06:32:00
12:53 AM,6.8,3.2,85,30.12,7.0,WNW,11.5,17.3,N/A,,Overcast,300,2012-12-21 06:53:00
1:12 AM,6.8,3.2,85,30.12,7.0,WNW,12.7,17.3,N/A,,Overcast,300,2012-12-21 07:12:00
1:32 AM,6.8,3.2,85,30.13,7.0,WNW,10.4,-,N/A,,Overcast,300,2012-12-21 07:32:00
1:53 AM,6.8,3.2,85,30.12,10.0,WNW,8.1,-,N/A,,Mostly Cloudy,300,2012-12-21 07:53:00
2:12 AM,6.8,3.2,85,30.13,10.0,NW,10.4,-,N/A,,Mostly Cloudy,310,2012-12-21 08:12:00
2:32 AM,6.8,3.2,85,30.14,10.0,NW,12.7,18.4,N/A,,Mostly Cloudy,310,2012-12-21 08:32:00
2:53 AM,6.8,3.2,85,30.15,10.0,WNW,10.4,-,N/A,,Mostly Cloudy,300,2012-12-21 08:53:00
3:12 AM,5.0,1.4,85,30.15,10.0,WNW,11.5,16.1,N/A,,Overcast,290,2012-12-21 09:12:00
3:32 AM,5.0,1.4,85,30.16,10.0,WNW,8.1,-,N/A,,Overcast,300,2012-12-21 09:32:00
3:53 AM,5.0,1.4,85,30.15,10.0,WNW,6.9,-,N/A,Snow,Light Snow,300,2012-12-21 09:53:00
4:12 AM,6.8,3.2,85,30.16,10.0,WNW,9.2,-,N/A,,Overcast,300,2012-12-21 10:12:00
4:32 AM,5.0,1.4,85,30.17,10.0,WNW,10.4,17.3,N/A,,Overcast,300,2012-12-21 10:32:00
4:53 AM,5.0,1.4,85,30.17,10.0,NW,11.5,-,N/A,,Mostly Cloudy,310,2012-12-21 10:53:00
5:12 AM,5.0,1.4,85,30.18,10.0,WNW,4.6,-,N/A,Snow,Light Snow,300,2012-12-21 11:12:00
5:33 AM,5.0,1.4,85,30.19,10.0,WNW,9.2,-,N/A,,Overcast,300,2012-12-21 11:33:00
5:53 AM,5.0,1.4,85,30.20,10.0,WNW,10.4,16.1,N/A,,Overcast,300,2012-12-21 11:53:00
6:12 AM,5.0,1.4,85,30.20,10.0,NW,3.5,-,N/A,,Scattered Clouds,310,2012-12-21 12:12:00
6:33 AM,5.0,1.4,85,30.21,10.0,NW,4.6,-,N/A,,Clear,310,2012-12-21 12:33:00
6:53 AM,5.0,1.4,85,30.22,10.0,NW,9.2,-,N/A,,Clear,310,2012-12-21 12:53:00
7:12 AM,5.0,1.4,85,30.22,10.0,NW,5.8,-,N/A,Snow,Light Snow,320,2012-12-21 13:12:00
7:32 AM,5.0,1.4,85,30.23,10.0,NW,8.1,-,N/A,Snow,Light Snow,310,2012-12-21 13:32:00
7:53 AM,5.0,1.4,85,30.22,10.0,NW,3.5,-,N/A,,Scattered Clouds,310,2012-12-21 13:53:00
8:12 AM,3.2,1.4,92,30.22,4.0,Calm,Calm,-,N/A,Snow,Light Snow,0,2012-12-21 14:12:00
8:32 AM,5.0,1.4,85,30.23,10.0,Calm,Calm,-,N/A,,Clear,0,2012-12-21 14:32:00
8:53 AM,6.8,1.4,79,30.23,10.0,Calm,Calm,-,N/A,,Clear,0,2012-12-21 14:53:00
9:12 AM,6.8,3.2,85,30.25,10.0,Calm,Calm,-,N/A,,Clear,0,2012-12-21 15:12:00
9:32 AM,6.8,3.2,85,30.25,10.0,West,3.5,-,N/A,,Clear,280,2012-12-21 15:32:00
9:41 AM,6.8,3.2,85,30.25,10.0,Calm,Calm,-,N/A,,Clear,0,2012-12-21 15:41:00
10:44 AM,10.4,6.8,85,30.24,10.0,Calm,Calm,-,N/A,,Clear,0,2012-12-21 16:44:00
10:52 AM,10.4,6.8,85,30.24,10.0,Calm,Calm,-,N/A,,Clear,0,2012-12-21 16:52:00
11:12 AM,12.2,6.8,79,30.24,10.0,NNW,3.5,-,N/A,,Clear,330,2012-12-21 17:12:00
11:32 AM,12.2,6.8,79,30.23,10.0,North,3.5,-,N/A,,Clear,350,2012-12-21 17:32:00
11:52 AM,12.2,6.8,79,30.22,10.0,North,4.6,-,N/A,,Clear,350,2012-12-21 17:52:00
12:13 PM,12.2,6.8,79,30.22,10.0,Calm,Calm,-,N/A,,Clear,0,2012-12-21 18:13:00
12:32 PM,14.0,8.6,79,30.22,10.0,Calm,Calm,-,N/A,,Clear,0,2012-12-21 18:32:00
12:52 PM,14.0,8.6,79,30.22,10.0,Calm,Calm,-,N/A,,Clear,0,2012-12-21 18:52:00
1:13 PM,15.8,8.6,73,30.22,10.0,Calm,Calm,-,N/A,,Clear,0,2012-12-21 19:13:00
1:32 PM,15.8,8.6,73,30.21,10.0,Calm,Calm,-,N/A,,Clear,0,2012-12-21 19:32:00
1:52 PM,17.6,8.6,68,30.21,10.0,Calm,Calm,-,N/A,,Clear,0,2012-12-21 19:52:00
2:13 PM,17.6,10.4,73,30.21,10.0,Calm,Calm,-,N/A,,Clear,0,2012-12-21 20:13:00
2:32 PM,17.6,10.4,73,30.21,10.0,WSW,3.5,-,N/A,,Clear,250,2012-12-21 20:32:00
2:52 PM,17.6,10.4,73,30.20,10.0,Calm,Calm,-,N/A,,Clear,0,2012-12-21 20:52:00
3:13 PM,17.6,10.4,73,30.20,10.0,Calm,Calm,-,N/A,,Clear,0,2012-12-21 21:13:00
3:32 PM,17.6,10.4,73,30.19,10.0,Calm,Calm,-,N/A,,Clear,0,2012-12-21 21:32:00
3:53 PM,17.6,10.4,73,30.19,10.0,Calm,Calm,-,N/A,,Clear,0,2012-12-21 21:53:00
4:12 PM,17.6,10.4,73,30.20,10.0,Calm,Calm,-,N/A,,Clear,0,2012-12-21 22:12:00
4:32 PM,15.8,10.4,79,30.20,10.0,Calm,Calm,-,N/A,,Clear,0,2012-12-21 22:32:00
4:53 PM,15.8,10.4,79,30.20,10.0,Calm,Calm,-,N/A,,Clear,0,2012-12-21 22:53:00
5:12 PM,12.2,8.6,85,30.20,10.0,Calm,Calm,-,N/A,,Clear,0,2012-12-21 23:12:00
5:32 PM,14.0,10.4,86,30.19,10.0,Calm,Calm,-,N/A,,Clear,0,2012-12-21 23:32:00
5:53 PM,12.2,10.4,92,30.19,10.0,Calm,Calm,-,N/A,,Clear,0,2012-12-21 23:53:00
6:12 PM,12.2,8.6,85,30.18,10.0,Calm,Calm,-,N/A,,Clear,0,2012-12-22 00:12:00
6:32 PM,12.2,10.4,92,30.17,10.0,Calm,Calm,-,N/A,,Clear,0,2012-12-22 00:32:00
6:53 PM,12.2,8.6,85,30.18,10.0,Calm,Calm,-,N/A,,Clear,0,2012-12-22 00:53:00
7:12 PM,12.2,8.6,85,30.17,10.0,Calm,Calm,-,N/A,,Clear,0,2012-12-22 01:12:00
7:32 PM,12.2,8.6,85,30.17,10.0,Calm,Calm,-,N/A,,Clear,0,2012-12-22 01:32:00
7:53 PM,12.2,8.6,85,30.17,10.0,Calm,Calm,-,N/A,,Clear,0,2012-12-22 01:53:00
8:12 PM,12.2,10.4,92,30.17,10.0,Calm,Calm,-,N/A,,Clear,0,2012-12-22 02:12:00
8:32 PM,12.2,10.4,92,30.17,10.0,Calm,Calm,-,N/A,,Clear,0,2012-12-22 02:32:00
8:53 PM,14.0,10.4,86,30.16,10.0,Calm,Calm,-,N/A,,Clear,0,2012-12-22 02:53:00
9:12 PM,14.0,10.4,86,30.14,10.0,South,4.6,-,N/A,,Clear,170,2012-12-22 03:12:00
9:32 PM,15.8,10.4,79,30.14,10.0,South,4.6,-,N/A,,Clear,170,2012-12-22 03:32:00
9:53 PM,15.8,10.4,79,30.14,10.0,South,4.6,-,N/A,,Clear,180,2012-12-22 03:53:00
10:12 PM,15.8,10.4,79,30.13,10.0,South,4.6,-,N/A,,Clear,170,2012-12-22 04:12:00
10:32 PM,15.8,10.4,79,30.12,10.0,South,4.6,-,N/A,,Clear,180,2012-12-22 04:32:00
10:53 PM,15.8,10.4,79,30.12,10.0,South,4.6,-,N/A,,Clear,180,2012-12-22 04:53:00
11:12 PM,15.8,10.4,79,30.11,10.0,South,3.5,-,N/A,,Clear,170,2012-12-22 05:12:00
11:32 PM,15.8,10.4,79,30.11,10.0,South,4.6,-,N/A,,Clear,170,2012-12-22 05:32:00
11:53 PM,17.6,10.4,73,30.10,10.0,South,3.5,-,N/A,,Clear,170,2012-12-22 05:53:00